Weather History for KMDD - August, 2013

Change the Weather History Date:

Tuesday, August 20, 2013

  Actual Average (KMAF) Record (KMAF)
Temperature  
Mean Temperature 86 °F 81 °F  
Max Temperature 95 °F 94 °F 105 °F (1986)
Min Temperature 77 °F 69 °F 58 °F (1940)
Cooling Degree Days 21 16  
Month to date cooling degree days 336  
Year to date cooling degree days 1718  
Since 1 June cooling degree days 1329  
Growing Degree Days 36 (Base 50)    
Moisture  
Dew Point 53 °F    
Average Humidity 32    
Maximum Humidity 46    
Minimum Humidity 23    
Precipitation  
Precipitation 0.00 in 0.06 in 1.13 in (1946)
Month to date precipitation 1.12  
Year to date precipitation 9.00  
Sea Level Pressure  
Sea Level Pressure 30.04 in    
Wind  
Wind Speed 2 mph (South)    
Max Wind Speed 12 mph    
Max Gust Speed 21 mph    
Visibility 10 miles    
Events      
T = Trace of Precipitation, MM = Missing Value Source: NWS Daily Summary

Daily Weather History Graph

Daily Weather History Graph

Search for Another Location

Airport or City:

Trip Planner

Search our weather history database for the weather conditions in past years. The results will help you decide how hot, cold, wet, or windy it might be!

Date:

Astronomy

Aug. 20, 2013 Rise Set
Actual Time 7:16 AM CDT 8:26 PM CDT
Civil Twilight 6:50 AM CDT 8:51 PM CDT
Nautical Twilight 6:20 AM CDT 9:22 PM CDT
Astronomical Twilight 5:49 AM CDT 9:53 PM CDT
Moon 8:03 PM CDT (8/20) 6:46 AM CDT (8/20)
Length of Visible Light 14h 01m
Length of Day
13h 10m
Full, 100% of the Moon is Illuminated
Aug 20
Full
Aug 20
Full
Aug 28
Last Quarter
Sep 5
New
Sep 12
First Quarter

Hourly Weather History & Observations

Time (CDT) Temp. Heat Index Dew Point Humidity Pressure Visibility Wind Dir Wind Speed Gust Speed Precip Events Conditions
12:15 AM 85.5 °F - 51.8 °F 31% 30.03 in 10.0 mi South 4.6 mph - N/A   Clear
12:35 AM 85.1 °F - 52.0 °F 32% 30.03 in 10.0 mi South 8.1 mph - N/A   Clear
12:55 AM 84.6 °F - 52.3 °F 33% 30.02 in 10.0 mi Calm Calm - N/A   Clear
1:15 AM 84.2 °F - 52.3 °F 33% 30.02 in 10.0 mi Calm Calm - N/A   Clear
1:35 AM 83.7 °F - 52.7 °F 34% 30.02 in 10.0 mi Calm Calm - N/A   Clear
1:55 AM 83.3 °F - 52.7 °F 35% 30.02 in 10.0 mi Calm Calm - N/A   Clear
2:15 AM 82.8 °F - 52.9 °F 36% 30.02 in 10.0 mi Calm Calm - N/A   Clear
2:35 AM 81.9 °F 81.0 °F 53.1 °F 37% 30.02 in 10.0 mi Calm Calm - N/A   Clear
2:55 AM 81.1 °F 80.6 °F 53.4 °F 38% 30.03 in 10.0 mi Calm Calm - N/A   Clear
3:15 AM 80.8 °F 80.3 °F 53.2 °F 38% 30.03 in 10.0 mi Calm Calm - N/A   Clear
3:35 AM 80.8 °F 80.3 °F 53.2 °F 38% 30.03 in 10.0 mi Calm Calm - N/A   Clear
3:55 AM 80.6 °F 80.3 °F 53.6 °F 39% 30.03 in 10.0 mi Calm Calm - N/A   Clear
4:15 AM 80.6 °F 80.3 °F 53.6 °F 39% 30.03 in 10.0 mi Calm Calm - N/A   Clear
4:35 AM 79.9 °F - 53.6 °F 40% 30.03 in 10.0 mi Calm Calm - N/A   Clear
4:55 AM 79.2 °F - 53.6 °F 41% 30.03 in 10.0 mi Calm Calm - N/A   Clear
5:15 AM 78.3 °F - 53.6 °F 42% 30.03 in 10.0 mi Calm Calm - N/A   Clear
5:35 AM 77.9 °F - 53.8 °F 43% 30.03 in 10.0 mi Calm Calm - N/A   Clear
5:55 AM 77.7 °F - 54.0 °F 44% 30.03 in 10.0 mi Calm Calm - N/A   Clear
6:15 AM 77.7 °F - 54.1 °F 44% 30.04 in 10.0 mi Calm Calm - N/A   Clear
6:35 AM 77.2 °F - 54.3 °F 45% 30.04 in 10.0 mi Calm Calm - N/A   Clear
6:55 AM 77.2 °F - 54.1 °F 45% 30.05 in 10.0 mi Calm Calm - N/A   Clear
7:15 AM 77.0 °F - 54.5 °F 46% 30.05 in 10.0 mi Calm Calm - N/A   Clear
7:35 AM 77.2 °F - 54.5 °F 45% 30.06 in 10.0 mi Calm Calm - N/A   Clear
7:55 AM 77.2 °F - 54.5 °F 45% 30.06 in 10.0 mi Calm Calm - N/A   Clear
8:15 AM 77.7 °F - 54.7 °F 45% 30.07 in 10.0 mi Calm Calm - N/A   Clear
8:35 AM 77.9 °F - 54.5 °F 44% 30.07 in 10.0 mi Calm Calm - N/A   Clear
8:55 AM 78.8 °F - 54.3 °F 43% 30.07 in 10.0 mi Calm Calm - N/A   Clear
9:15 AM 79.5 °F - 54.1 °F 41% 30.07 in 10.0 mi SSE 4.6 mph - N/A   Clear
9:35 AM 79.7 °F - 54.1 °F 41% 30.08 in 10.0 mi SSE 11.5 mph - N/A   Clear
9:55 AM 80.8 °F 80.4 °F 54.0 °F 39% 30.08 in 10.0 mi South 3.5 mph - N/A   Clear
10:15 AM 81.1 °F 80.6 °F 53.6 °F 38% 30.08 in 10.0 mi South 10.4 mph - N/A   Clear
10:35 AM 84.2 °F - 52.9 °F 34% 30.08 in 10.0 mi South 11.5 mph - N/A   Clear
10:55 AM 85.1 °F - 52.7 °F 33% 30.08 in 10.0 mi South 6.9 mph 16.1 mph N/A   Clear
11:15 AM 86.5 °F - 52.5 °F 31% 30.08 in 10.0 mi South 3.5 mph 12.7 mph N/A   Clear
11:35 AM 87.4 °F - 52.2 °F 30% 30.08 in 10.0 mi South 6.9 mph - N/A   Clear
11:55 AM 88.9 °F - 52.0 °F 28% 30.08 in 10.0 mi Calm Calm - N/A   Clear
12:15 PM 89.6 °F - 51.1 °F 27% 30.08 in 10.0 mi South 6.9 mph - N/A   Clear
12:35 PM 91.0 °F - 50.9 °F 25% 30.07 in 10.0 mi SSW 3.5 mph - N/A   Clear
12:55 PM 91.2 °F - 50.9 °F 25% 30.07 in 10.0 mi Calm Calm - N/A   Clear
1:15 PM 92.3 °F - 50.5 °F 24% 30.07 in 10.0 mi Calm Calm - N/A   Clear
1:35 PM 92.5 °F - 50.7 °F 24% 30.06 in 10.0 mi Calm Calm - N/A   Clear
1:55 PM 93.7 °F - 50.9 °F 23% 30.05 in 10.0 mi SE 6.9 mph 19.6 mph N/A   Clear
2:15 PM 94.3 °F - 51.1 °F 23% 30.05 in 10.0 mi SSW 8.1 mph 20.7 mph N/A   Clear
2:35 PM 94.6 °F - 51.3 °F 23% 30.04 in 10.0 mi SSE 3.5 mph - N/A   Clear
2:55 PM 95.5 °F - 51.8 °F 23% 30.04 in 10.0 mi Calm Calm - N/A   Clear
3:15 PM 93.6 °F - 52.0 °F 24% 30.04 in 10.0 mi Calm Calm - N/A   Clear
3:35 PM 95.2 °F - 52.0 °F 23% 30.04 in 10.0 mi South 5.8 mph 18.4 mph N/A   Clear
3:55 PM 94.5 °F - 52.2 °F 24% 30.03 in 10.0 mi Calm Calm - N/A   Clear
4:15 PM 95.0 °F - 52.0 °F 23% 30.02 in 10.0 mi SE 11.5 mph 16.1 mph N/A   Clear
4:35 PM 95.7 °F - 52.0 °F 23% 30.02 in 10.0 mi Calm Calm - N/A   Clear
4:55 PM 94.6 °F - 52.5 °F 24% 30.02 in 10.0 mi SE 9.2 mph 20.7 mph N/A   Clear
5:15 PM 94.1 °F - 52.7 °F 25% 30.02 in 10.0 mi SSE 4.6 mph - N/A   Clear
5:35 PM 94.6 °F - 52.7 °F 24% 30.01 in 10.0 mi Calm Calm - N/A   Clear
5:55 PM 93.6 °F - 52.7 °F 25% 30.01 in 10.0 mi Calm Calm - N/A   Clear
6:15 PM 94.1 °F - 52.2 °F 24% 30.01 in 10.0 mi Calm Calm - N/A   Clear
6:35 PM 94.3 °F - 52.5 °F 24% 30.00 in 10.0 mi Calm Calm - N/A   Clear
6:55 PM 93.6 °F 91.0 °F 53.1 °F 25% 30.00 in 10.0 mi Calm Calm - N/A   Clear
7:15 PM 93.0 °F - 52.9 °F 26% 30.00 in 10.0 mi Calm Calm - N/A   Clear
7:35 PM 92.3 °F 89.7 °F 53.1 °F 26% 30.00 in 10.0 mi Calm Calm - N/A   Clear
7:55 PM 91.6 °F - 52.7 °F 27% 30.00 in 10.0 mi Calm Calm - N/A   Clear
8:15 PM 91.0 °F - 52.7 °F 27% 30.01 in 10.0 mi Calm Calm - N/A   Clear
8:35 PM 90.5 °F - 52.9 °F 28% 30.01 in 10.0 mi Calm Calm - N/A   Clear
8:55 PM 89.6 °F - 52.9 °F 28% 30.02 in 10.0 mi Calm Calm - N/A   Clear
9:15 PM 89.1 °F - 52.7 °F 29% 30.02 in 10.0 mi Calm Calm - N/A   Clear
9:35 PM 88.3 °F - 52.7 °F 29% 30.03 in 10.0 mi Calm Calm - N/A   Clear
9:55 PM 87.8 °F - 52.0 °F 29% 30.04 in 10.0 mi Calm Calm - N/A   Clear
10:15 PM 87.3 °F - 51.8 °F 29% 30.05 in 10.0 mi Calm Calm - N/A   Clear
10:35 PM 86.2 °F - 51.3 °F 30% 30.06 in 10.0 mi Calm Calm - N/A   Clear
10:55 PM 85.1 °F - 51.3 °F 31% 30.07 in 10.0 mi Calm Calm - N/A   Clear
11:15 PM 84.4 °F - 51.4 °F 32% 30.07 in 10.0 mi Calm Calm - N/A   Clear
11:35 PM 83.3 °F - 51.4 °F 33% 30.07 in 10.0 mi Calm Calm - N/A   Clear
11:55 PM 82.4 °F - 51.3 °F 34% 30.07 in 10.0 mi Calm Calm - N/A   Clear